Wind_Speed
4 4 4 4 4 5 5 6 6 6 6 6 5 5 4 4 3 3 2 3 3 3 3 3 3 3 3 3 3 4 4 4 3 2 3 4 4 5 5 6 6 7 7
3 3 3 3 3 3 4 5 5 5 5 5 4 4 4 4 4 3 3 3 4 4 4 3 3 3 4 4 4 4 4 3 3 2 3 4 5 5 5 6 6 7 7
3 3 3 2 2 3 3 4 4 4 4 4 4 4 4 4 3 3 3 4 4 4 4 3 3 3 3 4 4 4 4 4 3 3 4 5 5 5 5 6 7 7 7
3 4 3 2 2 2 3 3 3 3 3 3 3 4 5 5 4 4 4 4 4 5 4 4 3 3 3 4 4 4 4 4 4 5 5 5 5 5 5 6 7 8 8
3 3 3 2 2 2 3 3 3 3 3 4 4 4 5 5 5 4 5 5 5 5 5 4 4 4 4 4 4 4 5 5 5 5 5 6 6 6 6 6 7 8 8
3 3 3 3 3 3 3 4 4 4 5 4 5 5 5 5 6 6 6 5 6 5 5 5 5 5 5 5 5 5 5 5 5 6 6 7 7 8 7 7 7 8 8
3 3 4 4 3 4 4 5 5 5 6 6 6 6 6 6 7 7 7 7 7 6 6 6 5 6 6 6 6 6 6 6 6 7 7 7 7 7 8 8 8 8 9
3 4 4 4 4 4 5 5 5 6 7 7 7 7 7 8 8 8 8 8 8 7 7 7 7 7 7 7 7 7 7 7 7 7 7 7 7 7 8 8 9 9 9
3 4 5 5 5 6 6 6 7 7 8 8 8 8 8 8 8 9 9 9 9 9 9 8 8 9 9 9 8 9 9 8 8 8 8 8 7 7 8 9 9 9 10
4 5 6 6 7 7 7 7 8 8 9 9 9 9 9 9 10 10 10 10 10 10 11 10 10 10 10 10 10 9 9 10 9 9 9 9 8 8 7 8 9 10 10
6 6 7 8 8 8 8 9 9 9 10 10 11 10 10 10 11 11 11 11 11 12 12 12 12 12 12 11 11 10 10 10 10 10 10 9 9 8 8 8 9 10 10
7 7 8 8 9 10 10 11 11 11 11 11 12 12 12 12 12 12 12 12 12 13 13 13 13 13 13 12 12 12 12 11 11 10 10 9 9 9 9 9 10 10 10
9 10 10 10 11 11 12 12 13 13 13 13 13 13 13 13 13 13 13 13 13 13 14 14 13 14 14 13 14 13 13 12 11 11 11 10 10 10 11 11 11 11 12
11 11 12 12 12 12 13 13 14 14 14 14 14 14 14 14 14 15 14 14 14 14 15 14 14 13 14 14 14 14 14 13 13 12 12 12 12 12 13 13 13 13 13
12 13 14 14 14 14 15 15 14 14 15 15 15 16 16 15 15 16 16 16 16 16 16 15 15 16 16 15 15 15 15 14 14 14 13 14 14 14 14 14 14 14 14
14 15 15 15 15 15 15 15 15 15 15 16 17 17 17 17 17 17 17 17 17 17 17 17 17 17 16 17 16 16 16 15 16 15 14 14 15 15 15 15 15 15 16
15 15 15 16 16 16 16 16 16 17 17 17 17 17 18 19 18 18 19 19 19 19 19 18 18 18 17 18 18 18 17 17 17 16 16 16 16 16 17 16 16 17 17
16 16 17 17 17 17 17 17 17 18 18 18 18 19 19 19 19 19 20 20 20 20 20 20 19 20 19 20 20 19 19 18 18 18 18 18 18 18 19 18 19 19 18
17 18 18 18 18 18 19 19 19 19 19 19 20 20 20 20 21 20 20 21 21 22 21 21 21 22 22 22 22 22 21 20 20 20 20 20 20 20 20 20 20 20 20
19 19 19 19 20 20 21 21 21 21 21 21 21 21 21 21 21 22 22 23 23 22 22 22 23 23 23 23 23 23 23 23 23 22 22 23 23 22 22 23 23 23 23
21 21 21 21 22 22 22 22 22 22 22 22 22 22 22 22 22 23 23 23 24 24 25 25 24 24 25 24 24 24 24 24 24 24 25 25 26 26 26 25 25 25 25
23 23 22 22 22 22 22 22 22 23 23 23 23 24 24 23 23 24 24 25 26 27 26 26 26 26 27 27 27 26 26 26 26 27 27 26 27 28 28 28 27 27 27
24 23 23 23 23 23 22 23 23 23 24 24 24 25 24 24 24 25 25 26 26 26 26 26 26 26 27 27 27 28 28 28 28 28 29 29 29 30 30 30 30 29 30
24 24 23 23 23 24 24 24 24 25 25 25 25 25 25 24 24 25 25 26 26 26 26 26 26 27 27 27 28 28 28 29 29 29 30 30 30 31 31 32 32 32 31
25 25 25 25 25 25 26 26 26 26 26 26 26 26 26 26 26 26 27 27 27 26 27 28 28 28 28 28 29 29 30 30 30 31 31 31 31 32 32 33 33 33 33
26 26 26 26 26 27 27 27 26 26 27 27 27 27 27 27 27 27 27 27 27 27 28 28 29 28 29 29 30 31 31 31 31 32 32 32 32 33 33 33 33 33 34
Wind_Direction
74 72 68 63 60 57 56 57 57 59 55 57 57 52 46 34 20 18 21 12 1 358 355 350 349 353 343 336 330 328 327 323 305 257 248 255 261 254 251 246 237 235 233
60 60 59 64 59 57 50 49 41 42 42 41 43 35 25 19 16 14 12 3 356 348 339 337 336 336 338 334 327 322 326 323 317 282 262 257 259 256 252 250 240 234 231
46 47 52 49 47 46 41 34 31 26 26 27 27 22 12 5 3 8 357 355 353 347 333 326 329 324 330 330 327 321 323 321 318 304 283 264 258 256 253 246 239 236 233
48 33 26 24 25 20 13 6 14 6 7 2 1 2 357 353 351 353 349 345 341 340 335 322 316 316 316 320 328 322 319 317 309 303 287 274 267 260 255 244 242 239 241
43 29 21 8 352 346 342 338 340 343 343 338 334 336 338 337 332 334 339 335 331 331 327 321 311 310 312 312 318 323 315 313 308 302 290 275 266 257 250 244 244 245 243
25 22 16 4 350 336 325 325 321 322 320 319 316 317 317 318 317 319 322 322 324 319 315 312 307 305 305 304 307 311 310 305 301 293 284 273 263 258 250 247 248 244 243
9 1 358 356 346 334 329 328 321 313 310 308 306 306 305 306 306 306 310 308 312 309 305 299 293 296 297 297 296 296 296 297 296 289 282 269 266 258 246 246 245 245 246
4 353 340 334 336 330 325 323 321 310 306 305 303 301 300 300 299 301 304 304 304 302 297 289 283 290 294 294 290 290 289 290 292 294 286 272 270 256 246 245 245 246 248
336 327 326 323 322 317 315 314 312 307 303 301 299 295 293 293 296 300 300 299 302 300 293 287 282 284 287 290 291 286 287 286 289 292 286 278 275 259 252 248 249 249 249
319 318 317 319 315 312 309 307 306 301 298 297 297 294 291 293 297 299 299 298 299 299 293 285 285 284 285 286 286 284 283 283 283 281 282 276 268 268 258 249 248 247 248
310 309 309 311 309 308 306 302 301 297 293 290 290 291 290 292 296 297 299 298 295 294 291 286 284 283 286 287 285 283 284 282 278 283 280 269 266 269 266 259 255 251 249
314 312 308 307 304 302 302 301 298 294 292 289 287 286 287 287 289 291 292 293 294 294 291 286 285 282 284 286 287 283 281 281 275 278 276 277 270 269 270 266 263 259 255
319 313 311 307 305 301 301 299 297 294 290 288 287 287 287 287 287 288 289 290 290 292 292 292 291 284 282 285 284 281 277 277 277 274 272 274 270 270 273 271 268 264 262
321 313 309 306 307 307 305 301 297 293 289 287 287 287 288 287 288 285 286 288 290 290 288 287 288 286 287 284 283 278 276 275 277 277 275 271 270 274 274 271 268 267 265
318 313 311 310 308 307 304 301 298 293 290 288 287 286 285 285 285 284 284 285 286 285 285 284 284 282 284 283 281 281 281 276 277 277 272 269 270 271 272 272 269 266 267
312 312 311 310 310 307 305 303 298 294 291 290 290 289 286 284 283 282 283 283 283 282 282 283 282 280 279 278 279 279 279 277 274 275 273 272 273 271 271 271 269 267 265
311 309 308 308 308 304 300 298 295 293 291 292 291 289 286 284 284 281 280 280 280 280 279 280 279 279 277 275 276 275 275 276 274 274 274 274 274 272 270 268 268 267 266
309 309 306 305 302 302 299 295 291 290 289 289 289 289 287 286 286 284 281 281 280 277 276 277 277 277 277 275 275 274 274 274 272 271 272 272 273 272 269 267 266 265 264
309 308 306 304 302 301 301 297 293 290 289 289 288 287 285 285 288 285 285 283 283 280 276 276 275 276 276 276 274 272 272 272 271 270 270 270 271 271 270 267 266 264 264
308 307 306 303 300 299 298 296 294 291 290 290 289 287 286 285 286 285 285 284 283 283 280 278 277 277 278 277 276 271 271 271 271 270 270 269 269 269 269 268 266 266 265
305 304 304 302 300 300 299 297 296 293 291 291 290 289 287 285 286 287 286 284 283 284 283 280 277 277 277 278 278 273 273 273 272 271 270 270 268 268 268 267 266 266 266
304 304 302 303 302 299 298 296 295 293 292 293 292 290 288 286 286 287 287 285 284 285 285 280 278 277 276 277 279 277 275 276 274 272 271 270 269 268 268 267 267 267 267
302 304 303 301 300 300 299 297 296 294 294 294 294 291 289 287 285 283 284 285 286 285 284 281 281 280 279 279 279 277 276 276 274 273 272 271 270 270 270 268 267 266 265
300 301 303 303 301 300 299 297 295 294 293 294 294 292 291 290 288 286 285 285 285 285 284 283 282 279 278 279 278 278 276 276 275 274 273 271 270 270 270 269 267 266 265
301 300 300 302 300 299 299 297 296 295 294 293 293 293 292 291 289 288 287 285 284 284 283 282 281 279 277 277 278 278 277 277 275 274 274 273 271 269 270 269 267 266 265
299 299 299 299 299 299 298 296 297 295 293 292 293 292 291 290 290 289 288 286 284 284 284 283 282 280 278 277 279 278 277 277 276 275 274 273 272 271 269 267 267 266 265
Height
5896 5895 5894 5894 5893 5893 5892 5891 5889 5888 5888 5887 5886 5885 5885 5884 5884 5883 5882 5881 5880 5879 5878 5877 5877 5876 5874 5873 5872 5871 5870 5869 5866 5867 5868 5868 5868 5868 5868 5868 5868 5868 5868
5896 5895 5894 5894 5893 5893 5892 5891 5890 5889 5888 5887 5886 5885 5885 5884 5883 5882 5882 5881 5880 5879 5878 5877 5876 5875 5874 5873 5872 5871 5870 5869 5867 5867 5867 5867 5867 5867 5866 5866 5866 5866 5867
5896 5895 5894 5894 5893 5893 5892 5891 5890 5889 5888 5887 5886 5885 5885 5884 5883 5882 5881 5880 5879 5878 5877 5876 5875 5874 5873 5872 5871 5870 5869 5868 5867 5867 5866 5866 5866 5865 5865 5865 5865 5865 5865
5895 5895 5894 5893 5893 5892 5891 5891 5890 5889 5888 5887 5886 5885 5884 5883 5882 5881 5880 5880 5878 5877 5876 5875 5874 5873 5872 5872 5871 5870 5868 5867 5867 5866 5865 5864 5864 5863 5863 5863 5863 5864 5864
5894 5894 5894 5893 5892 5891 5891 5890 5889 5888 5887 5887 5886 5885 5884 5883 5882 5881 5880 5879 5878 5877 5875 5874 5873 5872 5871 5870 5870 5868 5867 5866 5865 5864 5863 5863 5862 5862 5862 5862 5862 5862 5863
5894 5893 5893 5892 5891 5890 5890 5889 5888 5887 5886 5886 5885 5884 5883 5882 5881 5880 5879 5878 5877 5875 5874 5873 5872 5871 5870 5869 5868 5867 5866 5865 5864 5863 5862 5861 5860 5860 5860 5860 5860 5861 5861
5893 5892 5892 5891 5890 5889 5889 5888 5887 5886 5885 5885 5884 5883 5882 5881 5880 5879 5878 5876 5875 5874 5873 5872 5871 5870 5869 5868 5867 5866 5865 5864 5863 5861 5860 5859 5858 5857 5858 5858 5858 5858 5859
5892 5891 5891 5890 5889 5888 5887 5887 5886 5885 5884 5883 5882 5881 5881 5880 5879 5877 5876 5875 5873 5872 5871 5870 5869 5868 5867 5866 5865 5864 5863 5862 5861 5859 5858 5857 5856 5855 5856 5856 5856 5856 5856
5891 5890 5890 5889 5888 5887 5886 5885 5884 5883 5882 5881 5880 5880 5879 5878 5877 5876 5874 5873 5872 5870 5869 5868 5867 5866 5865 5864 5863 5861 5860 5859 5858 5857 5856 5855 5854 5854 5853 5853 5853 5853 5854
5889 5888 5888 5887 5886 5885 5884 5883 5882 5881 5880 5879 5878 5877 5877 5875 5874 5873 5872 5870 5869 5868 5866 5865 5864 5863 5862 5861 5860 5859 5858 5857 5855 5854 5854 5853 5852 5852 5851 5851 5851 5851 5851
5888 5887 5886 5885 5884 5883 5881 5880 5879 5878 5877 5876 5875 5874 5873 5872 5871 5870 5869 5868 5866 5865 5863 5862 5861 5860 5859 5858 5857 5856 5855 5854 5853 5852 5851 5850 5850 5849 5849 5848 5848 5848 5848
5886 5885 5884 5883 5881 5880 5879 5878 5876 5875 5874 5873 5872 5871 5870 5869 5868 5867 5866 5864 5863 5862 5860 5859 5858 5857 5856 5855 5854 5853 5852 5851 5850 5850 5848 5847 5847 5847 5846 5846 5845 5845 5845
5884 5882 5881 5880 5879 5877 5876 5874 5873 5872 5871 5870 5868 5867 5866 5865 5864 5863 5862 5861 5859 5858 5857 5855 5854 5853 5852 5851 5850 5849 5849 5848 5847 5847 5846 5845 5845 5844 5844 5843 5843 5843 5842
5881 5879 5878 5877 5875 5874 5872 5871 5869 5868 5867 5866 5865 5863 5862 5861 5860 5859 5858 5857 5856 5854 5853 5851 5850 5849 5848 5847 5846 5846 5845 5844 5844 5843 5842 5842 5842 5841 5841 5840 5839 5839 5839
5878 5876 5875 5873 5872 5870 5868 5867 5865 5864 5863 5861 5860 5859 5858 5856 5855 5854 5853 5852 5851 5850 5848 5847 5846 5845 5844 5843 5842 5842 5841 5840 5840 5839 5838 5838 5838 5837 5837 5836 5836 5835 5835
5875 5873 5871 5869 5868 5866 5864 5862 5861 5859 5858 5857 5855 5854 5853 5852 5850 5849 5848 5847 5846 5845 5843 5842 5841 5840 5839 5838 5837 5837 5836 5836 5835 5834 5834 5834 5833 5833 5832 5832 5832 5831 5831
5871 5869 5867 5865 5863 5861 5859 5858 5856 5855 5853 5852 5851 5849 5848 5846 5845 5843 5842 5841 5840 5839 5838 5837 5836 5835 5834 5833 5833 5832 5831 5831 5830 5830 5829 5829 5828 5828 5827 5827 5827 5826 5826
5868 5865 5863 5861 5859 5857 5855 5853 5851 5850 5848 5847 5845 5844 5842 5841 5839 5838 5837 5835 5834 5833 5832 5831 5830 5829 5829 5828 5827 5827 5826 5825 5824 5824 5824 5823 5823 5822 5822 5822 5821 5821 5821
5863 5861 5858 5856 5854 5852 5850 5848 5846 5844 5843 5841 5840 5838 5836 5835 5834 5832 5830 5829 5828 5826 5825 5825 5824 5823 5822 5822 5821 5820 5820 5819 5818 5818 5818 5817 5816 5816 5816 5815 5815 5815 5815
5859 5856 5853 5851 5848 5846 5844 5842 5840 5838 5837 5835 5833 5832 5830 5829 5828 5826 5824 5823 5821 5820 5819 5818 5817 5816 5815 5815 5814 5813 5813 5812 5811 5811 5810 5810 5810 5809 5809 5808 5808 5808 5808
5854 5851 5848 5845 5843 5840 5838 5836 5834 5832 5830 5829 5827 5826 5824 5823 5821 5819 5818 5817 5815 5813 5812 5811 5810 5809 5808 5807 5806 5805 5805 5804 5804 5803 5803 5802 5802 5802 5801 5801 5800 5800 5800
5848 5845 5842 5839 5837 5834 5832 5830 5828 5826 5824 5822 5821 5819 5817 5816 5814 5813 5811 5809 5808 5806 5805 5803 5802 5801 5799 5799 5798 5797 5796 5796 5796 5795 5794 5794 5793 5793 5792 5792 5792 5792 5792
5842 5839 5836 5833 5831 5828 5826 5824 5821 5819 5818 5816 5814 5812 5810 5808 5806 5805 5803 5801 5800 5798 5797 5795 5794 5792 5791 5790 5789 5788 5787 5787 5787 5786 5785 5785 5784 5784 5783 5783 5783 5783 5783
5835 5833 5830 5827 5825 5822 5819 5817 5814 5813 5811 5809 5806 5804 5802 5800 5798 5797 5795 5793 5791 5790 5788 5787 5786 5784 5783 5781 5780 5779 5778 5778 5777 5776 5775 5775 5774 5773 5773 5773 5772 5772 5773
5829 5826 5823 5820 5818 5815 5813 5810 5808 5805 5803 5801 5799 5796 5794 5792 5790 5788 5786 5785 5783 5781 5780 5779 5777 5776 5774 5772 5771 5770 5769 5768 5767 5766 5765 5764 5764 5763 5762 5762 5762 5762 5762
5821 5819 5816 5813 5810 5808 5805 5803 5800 5798 5795 5793 5791 5788 5786 5784 5782 5779 5777 5776 5775 5773 5771 5770 5768 5766 5765 5763 5761 5760 5759 5758 5756 5755 5754 5753 5752 5752 5752 5752 5751 5751 5751